Orbital Elements
Epoch 2018 Nov. 18.0 TT = JDT 2458440.5
T 2018 Dec. 2.57874 TT Rudenko
q 1.7116813 (2000.0) P Q
z +0.0041113 Peri. 56.22970 +0.03220270 +0.56732590
+/-0.0000007 Node 243.01854 -0.89265210 +0.38666411
e 0.9929628 Incl. 67.42370 +0.44959450 +0.72707096
From 699 observations 2017 Apr. 29-2020 Jan. 20, mean residual 0".7.
|